This is the latest recevied weather packets stored in our database for station/object F4FSZ-11. If no packets are shown the sender has not sent any weather packets the latest 10 day(s).
| Time | Temp. | Humidity | Pressure | Rain* | Wind** | Luminosity | Snow |
|---|---|---|---|---|---|---|---|
| 1778024037 | 11.67° C | 100% | 1002.9 hPa | - | - | - | - |
| 1778023137 | 11.67° C | 100% | 1002.9 hPa | - | - | - | - |
| 1778022237 | 11.67° C | 100% | 1002.9 hPa | - | - | - | - |
| 1778021337 | 11.67° C | 100% | 1002.7 hPa | - | - | - | - |
| 1778020437 | 12.22° C | 100% | 1002.9 hPa | - | - | - | - |
| 1778019537 | 12.22° C | 100% | 1002.9 hPa | - | - | - | - |
| 1778018637 | 12.22° C | 100% | 1002.9 hPa | - | - | - | - |
| 1778016836 | 12.22° C | 100% | 1002.9 hPa | - | - | - | - |
| 1778015936 | 12.78° C | 100% | 1003 hPa | - | - | - | - |
| 1778015036 | 12.78° C | 100% | 1003.2 hPa | - | - | - | - |
| 1778014136 | 12.78° C | 100% | 1003.1 hPa | - | - | - | - |
| 1778013236 | 12.78° C | 100% | 1003.1 hPa | - | - | - | - |
| 1778012336 | 12.78° C | 100% | 1002.8 hPa | - | - | - | - |
| 1778011436 | 12.78° C | 100% | 1002.7 hPa | - | - | - | - |
| 1778010536 | 12.78° C | 100% | 1002.7 hPa | - | - | - | - |
| 1778009636 | 12.22° C | 100% | 1002.6 hPa | - | - | - | - |
| 1778008736 | 12.78° C | 100% | 1002.5 hPa | - | - | - | - |
| 1778007836 | 12.78° C | 100% | 1002.3 hPa | - | - | - | - |
| 1778006936 | 13.33° C | 100% | 1002.4 hPa | - | - | - | - |
| 1778006036 | 13.89° C | 100% | 1002.3 hPa | - | - | - | - |
| 1778005136 | 13.89° C | 100% | 1002.3 hPa | - | - | - | - |
| 1778004236 | 14.44° C | 100% | 1002.2 hPa | - | - | - | - |
| 1778003336 | 15° C | 94% | 1002.1 hPa | - | - | - | - |
| 1778002435 | 16.11° C | 91% | 1001.9 hPa | - | - | - | - |
| 1778001535 | 16.11° C | 89% | 1002.1 hPa | - | - | - | - |
* Rain since midnight (hover to see other rain measurements)
** Current wind speed in m/s (hover to see current wind gust speed)